"Pseudo-MPEC" for C2YLDJ2

Created 2020 Aug 15 10:07:05 UT using Find_Orb

Click here for an explanation of pseudo-MPECs

 
 Astrometry: 
     C2YLDJ2  C2020 07 30.36439 22 41 21.89 +07 03 36.5    ~7U9b 20.8 GVNEOCPG96
     C2YLDJ2  C2020 07 30.37161 22 41 23.86 +07 00 30.7    ~7U9b 21.0 GVNEOCPG96
     C2YLDJ2  C2020 07 30.37881 22 41 25.75 +06 57 26.9    ~7U9b       VNEOCPG96
     C2YLDJ2  C2020 07 30.38602 22 41 27.63 +06 54 26.6    ~7U9b 20.3 GVNEOCPG96
     C2YLDJ2  C2020 07 30.44075 22 41 41.94 +06 31 42.1    ~7UB7 20.4 GVNEOCPI52
     C2YLDJ2  C2020 07 30.44274 22 41 42.44 +06 30 53.5    ~7UB7 20.9 GVNEOCPI52
     C2YLDJ2  C2020 07 30.44472 22 41 42.98 +06 30 05.3    ~7UB7 20.5 GVNEOCPI52

Station data:
(G96) Mt. Lemmon Survey  (N32.442754 W110.788720)  US/Arizona.  Observers T.
   A. Pruyne, B. M. Africano, E. J. Christensen, G. A. Farneth, D. C. Fuls,
   A. R. Gibbs, A. D. Grauer, H. Gröller, J. A. Johnson, R. A. Kowalski, S.
   M. Larson, G. J. Leonard, D. Rankin, R. L. Seaman, F. C. Shelly. 1.5-m
   reflector + 10K CCD.
(I52) Steward Observatory, Mt. Lemmon Station  (N32.442547 W110.788920)
   US/Arizona.  Observers T. A. Pruyne, B. M. Africano, E. J. Christensen, G.
   A. Farneth, D. C. Fuls, A. R. Gibbs, A. D. Grauer, H. Gröller, J. A.
   Johnson, R. A. Kowalski, S. M. Larson, G. J. Leonard, D. Rankin, R. L.
   Seaman, F. C. Shelly. 1.0-m reflector + CCD.

Orbital elements:  C2YLDJ2
   Perihelion 2020 Jun 28.055195 TT =  1:19:28 (JD 2459028.555195)
Epoch 2020 Jul 30.0 TT = JDT 2459060.5   Earth MOID: 0.0026   Ma: 0.0035
M  19.90739131                      (J2000 ecliptic)
n   0.62318087     Peri.  136.42820
a   1.35745874     Node   135.05359
e   0.2792542      Incl.    0.87151
P   1.58/577.67d   H   29.9     G   0.15   q 0.97838264  Q 1.73653484
From 7 observations 2020 July 30 (1.9 hr); mean residual 0".60
Residuals in arcseconds: 
200730 G96  .35+  .34+    200730 G96  .60-  1.2+    200730 I52  .08+  .00     
200730 G96  .39+  .87-    200730 I52  .33+  .37-    
200730 G96  .20-  1.4-    200730 I52  .10-  .24-    

Ephemerides (geocentric):
Date (UTC) HH   RA              Dec         delta   r     elong  mag
---- -- -- --  -------------   -----------  ------ ------ -----  ---
2020 08 15 10  23 01 31.624   -08 56 38.05  .05971 1.0689 159.5 24.9
2020 08 15 11  23 01 31.055   -08 57 02.65  .05986 1.0690 159.6 24.9
2020 08 15 12  23 01 30.483   -08 57 27.17  .06000 1.0692 159.6 24.9
2020 08 15 13  23 01 29.906   -08 57 51.59  .06014 1.0693 159.6 24.9
2020 08 15 14  23 01 29.326   -08 58 15.94  .06028 1.0695 159.7 24.9
2020 08 15 15  23 01 28.743   -08 58 40.19  .06042 1.0696 159.7 24.9
2020 08 15 16  23 01 28.156   -08 59 04.36  .06056 1.0697 159.8 24.9
2020 08 15 17  23 01 27.565   -08 59 28.45  .06070 1.0699 159.8 24.9
2020 08 15 18  23 01 26.970   -08 59 52.45  .06084 1.0700 159.9 24.9
2020 08 15 19  23 01 26.372   -09 00 16.37  .06098 1.0702 159.9 24.9
2020 08 15 20  23 01 25.770   -09 00 40.21  .06112 1.0703 160.0 24.9
2020 08 15 21  23 01 25.165   -09 01 03.96  .06126 1.0704 160.0 24.9
2020 08 15 22  23 01 24.556   -09 01 27.63  .06140 1.0706 160.0 24.9
2020 08 15 23  23 01 23.944   -09 01 51.22  .06154 1.0707 160.1 24.9
2020 08 16 00  23 01 23.328   -09 02 14.73  .06168 1.0709 160.1 24.9
2020 08 16 01  23 01 22.709   -09 02 38.16  .06183 1.0710 160.2 24.9
2020 08 16 02  23 01 22.087   -09 03 01.51  .06197 1.0712 160.2 24.9
2020 08 16 03  23 01 21.461   -09 03 24.78  .06211 1.0713 160.3 24.9
2020 08 16 04  23 01 20.831   -09 03 47.97  .06225 1.0714 160.3 24.9
2020 08 16 05  23 01 20.199   -09 04 11.08  .06239 1.0716 160.4 24.9
2020 08 16 06  23 01 19.563   -09 04 34.11  .06253 1.0717 160.4 24.9
2020 08 16 07  23 01 18.923   -09 04 57.07  .06267 1.0719 160.4 24.9
2020 08 16 08  23 01 18.281   -09 05 19.94  .06281 1.0720 160.5 24.9
2020 08 16 09  23 01 17.635   -09 05 42.75  .06296 1.0721 160.5 24.9
2020 08 16 10  23 01 16.986   -09 06 05.47  .06310 1.0723 160.6 24.9
2020 08 16 11  23 01 16.334   -09 06 28.12  .06324 1.0724 160.6 25.0
2020 08 16 12  23 01 15.679   -09 06 50.69  .06338 1.0726 160.7 25.0
2020 08 16 13  23 01 15.020   -09 07 13.18  .06352 1.0727 160.7 25.0
2020 08 16 14  23 01 14.358   -09 07 35.60  .06366 1.0729 160.7 25.0
2020 08 16 15  23 01 13.694   -09 07 57.95  .06381 1.0730 160.8 25.0
2020 08 16 16  23 01 13.026   -09 08 20.22  .06395 1.0731 160.8 25.0
2020 08 16 17  23 01 12.355   -09 08 42.42  .06409 1.0733 160.9 25.0
2020 08 16 18  23 01 11.681   -09 09 04.55  .06423 1.0734 160.9 25.0
2020 08 16 19  23 01 11.004   -09 09 26.60  .06437 1.0736 161.0 25.0
2020 08 16 20  23 01 10.324   -09 09 48.58  .06452 1.0737 161.0 25.0
2020 08 16 21  23 01 09.641   -09 10 10.49  .06466 1.0739 161.1 25.0
2020 08 16 22  23 01 08.955   -09 10 32.32  .06480 1.0740 161.1 25.0
2020 08 16 23  23 01 08.267   -09 10 54.09  .06494 1.0741 161.1 25.0
2020 08 17 00  23 01 07.575   -09 11 15.78  .06508 1.0743 161.2 25.0
2020 08 17 01  23 01 06.881   -09 11 37.40  .06523 1.0744 161.2 25.0
2020 08 17 02  23 01 06.183   -09 11 58.95  .06537 1.0746 161.3 25.0
2020 08 17 03  23 01 05.483   -09 12 20.44  .06551 1.0747 161.3 25.0
2020 08 17 04  23 01 04.780   -09 12 41.85  .06565 1.0749 161.4 25.0
2020 08 17 05  23 01 04.075   -09 13 03.19  .06580 1.0750 161.4 25.0
2020 08 17 06  23 01 03.366   -09 13 24.46  .06594 1.0751 161.4 25.0
2020 08 17 07  23 01 02.655   -09 13 45.67  .06608 1.0753 161.5 25.0
2020 08 17 08  23 01 01.941   -09 14 06.81  .06622 1.0754 161.5 25.0
2020 08 17 09  23 01 01.224   -09 14 27.87  .06637 1.0756 161.6 25.0